Location: Perryvale
(54.4667°N, 113.3833°W)
Time: 23:26:57
(UTC+00:00)

Vanguard 1 Rocket - Pass Details

Date: 26 May 2024
Orbit: 649 x 4221 km, 34.3° (Epoch: 13 June)

Event Time Altitude Azimuth Distance (km) Brightness Sun altitude
Rises 18:38:49 0° 255° (WSW) 7,823 12.1 55.4°
Reaches altitude 10° 18:45:39 10° 247° (WSW) 6,282 11.8 55.8°
Maximum altitude 18:59:35 29° 197° (SSW) 3,499 11.5 56.3°
Drops below altitude 10° 19:08:04 10° 141° (SE) 3,761 11.2 56.6°
Sets 19:10:58 0° 130° (SE) 4,360 11.2 56.6°
